Regional Weather Roundup
Issued by NWS Portland, ME

Current Version | Previous Version | Text Only | Print | Product List | Glossary Off
Versions: 1 2 3 4 5 6 7 8 9 10 11 12 13 14 15 16 17 18 19 20 21 22 23 24 25 26 27 28 29 30 31 32 33 34 35 36 37 38 39 40 41 42 43 44 45 46 47 48 49 50
000 ASUS41 KGYX 220105 RWRGYX WEATHER ROUNDUP FOR MAINE AND NEW HAMPSHIRE NATIONAL WEATHER SERVICE GRAY ME 800 PM EST MON JAN 21 2019 MEZ002-005-006-010-012-015-018-020-021-024-026-027-029-220200- MAINE CITY SKY/WX TMP DP RH WIND PRES REMARKS PORTLAND CLOUDY 4 -10 52 NW13G38 29.93R WCI -13 SANFORD FLURRIES 0 -9 65 W9 29.95R BAR HARBOR LGT SNOW 2 -4 76 NW8G18 29.78R WISCASSET CLOUDY 2 -7 66 VRB7 29.90R HAZE ROCKLAND LGT SNOW 1 -6 72 W14G21 29.84R WCI -17 FRYEBURG CLOUDY 1 -11 57 W5 29.91R LEWISTONAUBURN FLURRIES 1 -9 62 NW13G25 29.89R WCI -17 AUGUSTA CLOUDY 1 -10 60 NW13G21 29.84R WCI -17 WATERVILLE FLURRIES 1 -8 66 MISG 29.81R BANGOR CLOUDY 2 -7 66 NW12G21 29.79R WCI -15 GREENVILLE N/A -3 -11 68 NW15 29.64R WCI -23 MILLINOCKET CLOUDY 2 -6 69 W9 29.74R HOULTON CLOUDY 4 -4 69 NW9G22 29.65R PRESQUE ISLE FLURRIES 5 -3 69 NW15 29.68R WCI -13 FRENCHVILLE CLOUDY 4 -5 66 N18G25 29.63R WCI -16 CARIBOU CLOUDY 5 -4 66 NW16G25 29.65R WCI -14 $$ NHZ002-005-008-009-011-012-014-220200- NEW HAMPSHIRE CITY SKY/WX TMP DP RH WIND PRES REMARKS PORTSMOUTH CLOUDY 2 -10 56 W15 29.96R WCI -17 ROCHESTER FLURRIES 1 -10 60 NW21G31 29.93R WCI -21 NASHUA CLOUDY 4 -5 66 NW17G24 30.03R WCI -16 MANCHESTER FLURRIES 4 -9 55 NW14G29 30.01R WCI -14 CONCORD CLOUDY 2 -8 63 NW13G22 30.00R WCI -15 PLYMOUTH LGT SNOW 0 -7 73 N3 29.99R BERLIN LGT SNOW -3 -10 72 VRB5G17 29.87R WHITEFIELD LGT SNOW -3 -10 72 W9 29.95R JAFFREY CLOUDY 0 -9 65 NW9G22 29.95R KEENE CLOUDY 1 -10 60 VRB7 30.07R LEBANON CLOUDY 3 -11 52 NW9 30.04R MT WASHINGTON SNOWSHWR -26 -26 100 NW81G96 N/A VSB 0 WCI -74 $$ VTZ005-007-008-220200- VERMONT CITY SKY/WX TMP DP RH WIND PRES REMARKS ST JOHNSBURY N/A -1 -8 72 MISG 30.02R MONTPELIER MIX PCPN -3 -12 65 NW15G30 30.05R WCI -23 BURLINGTON FAIR 3 -11 52 NW13G24 30.18R WCI -14 $$ MAZ007-012-024-CTZ003-RIZ002-NYZ038-NYZ072-220200- SOUTHERN NEW ENGLAND AND NY CITY SKY/WX TMP DP RH WIND PRES REMARKS BOSTON LGT SNOW 7 -3 64 NW20G30 30.02R WCI -13 WORCESTER MOCLDY 0 -11 59 W29G38 29.94R WCI -26 NANTUCKET CLOUDY 6 -5 60 NW23G40 29.99R WCI -15 PROVIDENCE FLURRIES 6 -6 57 NW14G26 30.05R WCI -11 HARTFORD FAIR 3 -14 45 NW15G26 30.14R WCI -16 ALBANY FAIR 3 -14 45 NW20G29 30.28R WCI -18 NEW YORK CITY FAIR 12 0 58 NW28G40 30.28R WCI -9 $$ ANZ081-ANZ082-ANZ150-NHZ014-MEZ023>029-220200- COASTAL MARINE OBSERVATIONS STATION/POSITION TIME TEMP WIND PRES WAVE AIR SEA DIR/SP/G HT/PER (UTC) (F) (DEG/KT/KT) (MB) (FT/S) MOUNT DESERT ROC 0000 8 300/ 28/ 33 1006.9R MATINICUS ROCK 0000 7 310/ 30/ 32 1008.2R ISLE OF SHOALS 0000 3 310/ 33/ 38 1012.9R JEFFREYS LEDGE 0008 43 N/A 9/ 6 CASHES LEDGE BUO 0050 10 39 1010.2R 9/ 7 $$ .............KEY.............. WCI - WIND CHILL TC - TEMPERATURE IN CELSIUS VSB - VISIBILITY IN MILES HX - HEAT INDEX FAIR- INDICATES FEW OR NO CLOUDS BELOW 12,000 FT, WITH NO SIGNIFICANT WEATHER AND/OR OBSTRUCTIONS TO VISIBILITY.

USA.gov is the U.S. government's official web portal to all federal, state and local government web resources and services.